Regional Weather Roundup
Issued by NWS Raleigh/Durham, NC

Home | Current Version | Previous Version | Text Only | Print | Product List | Glossary On
Versions: 1 2 3 4 5 6 7 8 9 10 11 12 13 14 15 16 17 18 19 20 21 22 23 24 25 26 27 28 29 30 31 32 33 34 35 36 37 38 39 40 41 42 43 44 45 46 47 48 49 50
000
ASUS42 KRAH 290110
RWRRAH
NORTH CAROLINA WEATHER ROUNDUP
NATIONAL WEATHER SERVICE RALEIGH NC
900 PM EDT THU MAY 28 2015

NOTE: "FAIR" INDICATES FEW OR NO CLOUDS BELOW 12,000 FEET WITH NO
SIGNIFICANT WEATHER AND/OR OBSTRUCTIONS TO VISIBILITY.

NCZ001-053-055-056-065-067-290200-
WESTERN NORTH CAROLINA

CITY           SKY/WX    TMP DP  RH WIND       PRES   REMARKS
ASHEVILLE      CLOUDY    67  62  84 SE6       30.26S
JEFFERSON      CLOUDY    64  64 100 CALM      30.31R
MORGANTON      CLOUDY    67  65  94 NE5       30.28R
HICKORY        LGT RAIN  68  66  93 NE8       30.23R
RUTHERFORDTON  LGT RAIN  67  66  97 N6        30.23S
MOUNT AIRY     CLOUDY    71  65  82 CALM      30.24S
BOONE          CLOUDY    61  61 100 CALM      30.31S FOG
$$

NCZ021-022-025-041-071-084-088-290200-
CENTRAL NORTH CAROLINA

CITY           SKY/WX    TMP DP  RH WIND       PRES   REMARKS
CHARLOTTE      CLOUDY    75  67  76 SW3       30.20R
GREENSBORO     MOCLDY    77  62  59 S6        30.20R
WINSTON-SALEM  CLOUDY    78  64  61 CALM      30.21R
RALEIGH-DURHAM MOCLDY    78  68  71 S6        30.19R
FORT BRAGG     PTCLDY    80  66  62 S8        30.18R
FAYETTEVILLE   CLEAR     78  66  66 S6        30.18R
BURLINGTON     PTCLDY    78  65  63 CALM      30.19R
LAURINBURG     PTCLDY    78  64  61 S7        30.19R
$$

NCZ011-015-027-028-043-044-047-080-103-290200-
NORTHEASTERN NORTH CAROLINA

CITY           SKY/WX    TMP DP  RH WIND       PRES   REMARKS
ROCKY MT-WILSO CLOUDY    78  69  73 CALM      30.19R
GREENVILLE     CLEAR     77  68  73 S5        30.21R
WASHINGTON     CLEAR     74  64  69 SE3       30.20S
ELIZABETH CITY CLEAR     74  63  68 S7        30.21R
MANTEO         CLEAR     73  62  67 S7        30.22R
CAPE HATTERAS  CLEAR     73  60  63 SE7       30.22R
$$

NCZ078-087-090-091-093-098-101-290200-
SOUTHEASTERN NORTH CAROLINA

CITY           SKY/WX    TMP DP  RH WIND       PRES   REMARKS
LUMBERTON      PTCLDY    75  65  70 SE5       30.19R
GOLDSBORO      CLEAR     77  66  67 CALM      30.17R
KINSTON        CLEAR     77  64  65 S6        30.21R
KENANSVILLE    CLEAR     73  64  71 CALM      30.21R
NEW BERN       CLEAR     73  61  65 S6        30.21R
CHERRY POINT   PTCLDY    70  60  70 S5        30.22R
BEAUFORT       PTCLDY    72  62  71 SE3       30.21R
JACKSONVILLE   CLEAR     72  63  73 S6        30.20R
WILMINGTON     CLEAR     73  62  68 CALM      30.20R
$$




USA.gov is the U.S. government's official web portal to all federal, state and local government web resources and services.